User: anonymous   Login
Location: Unspecified
(0.0000°N, 0.0000°E)
Time: 20:19:10
(UTC+00:00)
Language:

OUFTI-1 - Orbit

View from above orbital plane
View from above orbital plane
View from above satellite
View from above satellite

Ground track
Ground track

The orbit data is extracted from the following two-line orbital elements,

1 41458U 16025C   22268.42762183  .00013375  00000-0  54203-3 0  9995
2 41458  98.1934  82.8230 0135552 284.8269  73.7979 15.16667991352723
Epoch (UTC): 25 September 2022 10:15:46
Eccentricity: 0.0135552
inclination: 98.1934°
perigee height: 422 km
apogee height: 609 km
right ascension of ascending node: 82.8230°
argument of perigee: 284.8269°
revolutions per day: 15.16667991
mean anomaly at epoch: 73.7979°
orbit number at epoch: 35272

The dashed part of the orbit path shows where the satellite is in the earth's shadow,  

DLR